Regional Weather Roundup
Issued by NWS

Home | Current Version | Previous Version | Graphics & Text | Print | Product List | Glossary On
Versions: 1 2 3 4 5 6 7 8 9 10 11 12 13 14 15 16 17 18 19 20 21 22 23 24 25 26 27 28 29 30 31 32 33 34 35 36 37 38 39 40 41 42 43 44 45 46 47 48 49 50
000
ASUS43 KMKX 260621
RWRWI

WISCONSIN REGIONAL WEATHER ROUNDUP
NATIONAL WEATHER SERVICE MILWAUKEE/SULLIVAN WI
100 AM CDT SUN APR 26 2015

NOTE: "FAIR" INDICATES FEW OR NO CLOUDS BELOW 12,000 FEET WITH NO
SIGNIFICANT WEATHER AND/OR OBSTRUCTIONS TO VISIBILITY.

WIZ001-002-006>008-014>016-023>028-260700-
NORTHWEST WISCONSIN

CITY           SKY/WX    TMP DP  RH WIND       PRES   REMARKS
SUPERIOR ARPT  CLEAR     32  22  65 NE3       30.07S
6HR MIN TEMP:  32; 6HR MAX TEMP:  38;

ASHLAND        CLEAR     25  21  85 NE6       30.07R WCI  18
6HR MIN TEMP:  25; 6HR MAX TEMP:  41;

HAYWARD        CLEAR     32  22  66 NE5       30.03R WCI  27
6HR MIN TEMP:  29; 6HR MAX TEMP:  47;

SIREN          CLEAR     35  21  56 NE3       30.04R
6HR MIN TEMP:  35; 6HR MAX TEMP:  54;

CUMBERLAND     CLEAR     34  19  55 NE5       30.01R WCI  30
RICE LAKE      CLEAR     36  22  56 N8        30.02R WCI  30
6HR MIN TEMP:  35; 6HR MAX TEMP:  56;

CHETEK         CLEAR     41  23  49 N5        30.01R
6HR MIN TEMP:  40; 6HR MAX TEMP:  57;

LADYSMITH      CLEAR     37  24  60 NE3       30.02R
6HR MIN TEMP:  37; 6HR MAX TEMP:  55;

EAU CLAIRE     CLEAR     38  22  52 NE8       29.98R WCI  32
6HR MIN TEMP:  38; 6HR MAX TEMP:  59;

MENOMONIE      CLEAR     41  21  45 N5        30.00R
6HR MIN TEMP:  41; 6HR MAX TEMP:  60;

NEW RICHMOND   CLEAR     38  21  49 NE8       30.01R WCI  32
6HR MIN TEMP:  38; 6HR MAX TEMP:  60;

OSCEOLA        CLEAR     38  21  50 N5        30.04R WCI  34
6HR MIN TEMP:  38; 6HR MAX TEMP:  60;

$$

WIZ003>005-009-010-017-018-260700-
NORTH CENTRAL WISCONSIN

CITY           SKY/WX    TMP DP  RH WIND       PRES   REMARKS
MANITOWISH WTR CLEAR     29  20  71 CALM      30.01R
6HR MIN TEMP:  28; 6HR MAX TEMP:  49;

ARBOR VITAE    CLEAR     32  19  59 CALM      30.00S
6HR MIN TEMP:  32; 6HR MAX TEMP:  52;

WOODRUFF       CLEAR     32  19  59 CALM      30.00S
6HR MIN TEMP:  32; 6HR MAX TEMP:  52;

RHINELANDER    CLEAR     33  20  58 N3        30.00R
6HR MIN TEMP:  33; 6HR MAX TEMP:  53;

EAGLE RIVER    CLEAR     27  19  69 CALM      30.00R
6HR MIN TEMP:  27; 6HR MAX TEMP:  51;

LAND O LAKES   CLEAR     30  19  61 CALM      30.01S
6HR MIN TEMP:  30; 6HR MAX TEMP:  48;

PHILLIPS       CLEAR     32  22  65 NE5       30.00R WCI  27
6HR MIN TEMP:  32; 6HR MAX TEMP:  54;

TOMAHAWK       CLEAR     33  22  65 CALM      30.01R
6HR MIN TEMP:  33; 6HR MAX TEMP:  55;

MEDFORD        CLEAR     33  23  68 CALM      29.98R
6HR MIN TEMP:  32; 6HR MAX TEMP:  54;

MERRILL        CLEAR     30  23  75 NE5       29.99S WCI  25
6HR MIN TEMP:  29; 6HR MAX TEMP:  55;

$$

WIZ029-030-035-036-043>047-260700-
CENTRAL WISCONSIN

CITY           SKY/WX    TMP DP  RH WIND       PRES   REMARKS
WAUSAU         CLEAR     36  22  56 NE5       29.97R WCI  32
6HR MIN TEMP:  36; 6HR MAX TEMP:  54;

MOSINEE        CLEAR     36  19  51 NE6       29.99S WCI  31
MARSHFIELD     CLEAR     38  20  48 NE7       29.97R WCI  33
6HR MIN TEMP:  38; 6HR MAX TEMP:  56;

STEVENS POINT  CLEAR     31  19  60 N3        29.98S
6HR MIN TEMP:  28; 6HR MAX TEMP:  49;

WAUPACA        CLEAR     39  21  48 N5        29.98R
6HR MIN TEMP:  36; 6HR MAX TEMP:  50;

WAUTOMA        CLEAR     38  18  44 NE6       29.97R WCI  33
6HR MIN TEMP:  38; 6HR MAX TEMP:  50;

WISC RAPIDS    CLEAR     36  16  44 NE7       29.99R WCI  30
6HR MIN TEMP:  35; 6HR MAX TEMP:  53;

CAMP DOUGLAS   CLEAR     26  24  89 W2        29.97R
6HR MIN TEMP:  26; 6HR MAX TEMP:  53;

$$

WIZ011>013-019>022-031-037>040-048>050-260700-
NORTHEAST WISCONSIN

CITY           SKY/WX    TMP DP  RH WIND       PRES   REMARKS
ANTIGO         CLEAR     30  24  77 N5        29.98S WCI  26
SHAWANO        CLEAR     38  24  57 NE8       29.99S WCI  32
6HR MIN TEMP:  38; 6HR MAX TEMP:  48;

OCONTO         CLEAR     34  23  64 N5        29.99S WCI  30
6HR MIN TEMP:  34; 6HR MAX TEMP:  46;

STURGEON BAY   CLEAR     36  21  55 N9        29.99S WCI  29
6HR MIN TEMP:  36; 6HR MAX TEMP:  46;

GREEN BAY      CLEAR     40  26  57 N10       29.97R WCI  33
6HR MIN TEMP:  38; 6HR MAX TEMP:  46;

MANITOWOC      CLEAR     40  26  57 NE12G18   29.95R WCI  33
6HR MIN TEMP:  38; 6HR MAX TEMP:  43;

APPLETON       CLEAR     36  23  60 N12       29.96S WCI  27
CLINTONVILLE   CLEAR     37  23  56 N6        29.98R WCI  33
OSHKOSH        CLEAR     42  29  59 NE16      29.95R
6HR MIN TEMP:  42; 6HR MAX TEMP:  47;

$$

WIZ032>034-041-042-053>061-260700-
SOUTHWEST WISCONSIN

CITY           SKY/WX    TMP DP  RH WIND       PRES   REMARKS
LA CROSSE      CLEAR     38  25  59 NW5       29.98R WCI  34
6HR MIN TEMP:  38; 6HR MAX TEMP:  58;

SPARTA         CLEAR     28  21  74 CALM      29.98R
6HR MIN TEMP:  28; 6HR MAX TEMP:  55;

VIROQUA        CLEAR     36  17  45 NE6       29.95R WCI  31
6HR MIN TEMP:  36; 6HR MAX TEMP:  50;

BOSCOBEL       CLEAR     31  26  82 CALM      29.96R
6HR MIN TEMP:  31; 6HR MAX TEMP:  52;

PRAIRIE DU CHI CLEAR     32  29  86 CALM      29.95R
6HR MIN TEMP:  32; 6HR MAX TEMP:  51;

PLATTEVILLE    CLEAR     36  28  72 NE5       29.93R WCI  32
6HR MIN TEMP:  36; 6HR MAX TEMP:  48;

$$

WIZ056-057-062-063-064-067-068-260700-
SOUTH CENTRAL WISCONSIN

CITY           SKY/WX    TMP DP  RH WIND       PRES   REMARKS
REEDSBURG      CLEAR     38  12  34 CALM      29.95R
6HR MIN TEMP:  38; 6HR MAX TEMP:  51;

BARABOO/DELLS  CLEAR     36  11  35 NE5       29.95R WCI  32
6HR MIN TEMP:  35; 6HR MAX TEMP:  50;

LONE ROCK      CLEAR     32  24  72 CALM      29.96R
6HR MIN TEMP:  32; 6HR MAX TEMP:  51;

MINERAL POINT  CLEAR     41  19  42 NE7       29.93R
MADISON        CLEAR     35  24  64 NW5       29.93R WCI  31
6HR MIN TEMP:  35; 6HR MAX TEMP:  50;

MIDDLETON      CLEAR     33  24  71 CALM      29.94R
6HR MIN TEMP:  32; 6HR MAX TEMP:  49;

WATERTOWN      CLEAR     35  22  58 N5        29.91R WCI  31
6HR MIN TEMP:  35; 6HR MAX TEMP:  47;

MONROE         CLEAR     37  25  60 N6        29.91R WCI  33
JANESVILLE     CLEAR     41  21  45 N7        29.90R
$$

WIZ051-052-058>065-066-070>072-260700-
SOUTHEAST WISCONSIN

CITY           SKY/WX    TMP DP  RH WIND       PRES   REMARKS
MILWAUKEE      CLEAR     39  30  70 N13       29.91R WCI  31
6HR MIN TEMP:  39; 6HR MAX TEMP:  42;

WAUKESHA       CLEAR     36  23  60 NE6       29.91R WCI  31
MILWAUKEE/TIMM CLEAR     39  28  65 NE8       29.91R WCI  34
RACINE         CLEAR     38  30  73 N9        29.91R WCI  31
6HR MIN TEMP:  38; 6HR MAX TEMP:  41;

BURLINGTON     CLEAR     35  22  58 N5        29.89R WCI  31
6HR MIN TEMP:  34; 6HR MAX TEMP:  41;

KENOSHA        CLEAR     37  28  70 N7        29.89R WCI  32
6HR MIN TEMP:  37; 6HR MAX TEMP:  41;

FOND DU LAC    CLEAR     41  23  48 NE14      29.94R
6HR MIN TEMP:  38; 6HR MAX TEMP:  49;

SHEBOYGAN      CLEAR     38  27  64 NE13      29.93R WCI  30
6HR MIN TEMP:  35; 6HR MAX TEMP:  43;

WEST BEND      CLEAR     36  23  60 NE6       29.92R WCI  31
JUNEAU         CLEAR     37  22  56 N10       29.93R WCI  29
6HR MIN TEMP:  34; 6HR MAX TEMP:  47;

$$

LSZ147-162-260700-
LAKE SUPERIOR

STATION/POSITION TIME  TEMP    WIND        PRES    WAVE
                       AIR SEA DIR/SP/G            HT/PER
                 (UTC) (F)     (DEG/KT/KT) (MB)    (FT/S)
W MID LAKE BUOY  0550   35 34  360/  4/  4 1019.9R   1/ 4
DEVILS ISLAND    0600   37      10/ 11/ 11 1019.4R
PORT WING        0500   31     110/  3/  4 1018.3S
SAXON HARBOR     0500   29        CALM     1017.6R
$$

LMZ867-665-643>646-260700-
LAKE MICHIGAN

STATION/POSITION TIME  TEMP    WIND        PRES    WAVE


USA.gov is the U.S. government's official web portal to all federal, state and local government web resources and services.